COSMOS 2492 (754)

Last updated on Oct. 24, 2020, 5:55 a.m. UTC

1 39620U 14012A   20297.60894513 -.00000091  00000-0  10000-3 0  9999
2 39620  65.7882  23.3048 0011620 319.3391 147.2494  2.13103343 51284
UTC
Height (km)
Latitude
Longitude
Inclination
Orbital Period
UTC large
Height (km)
Speed (km/s)
/
Latitude / Longitude
Inclination (degrees)
Orbital Period (minutes)
Azimuth
Elevation
Range (km)
Doppler Factor
iOS Compass Heading
iOS Angle

Next 30 passes for location: Hong Kong

Rise time Rise Azimuth (degrees) Set time Set Azimuth (degrees) Duration Max altitude (degrees)

No matching passes for this satellites